Location: New Canada
(47.1017°N, 68.5042°W)
Time: 04:59:07
(UTC+00:00)

BEESAT - Visible Passes

Search period start: 23 March 2023 00:00
Search period end: 02 April 2023 00:00
Orbit: 698 x 705 km, 98.5° (Epoch: 22 March)

Date Brightness Start Highest point End Pass type
(mag) Time Alt. Az. Time Alt. Az. Time Alt. Az.
23 Mar ? 02:07:32 10° N 02:10:00 30° N 02:10:00 30° N visible
23 Mar ? 03:48:23 10° NW 03:48:52 10° NW 03:48:52 10° NW visible
24 Mar ? 01:12:28 10° NNE 01:14:14 21° NE 01:14:14 21° NE visible
24 Mar ? 02:50:26 10° N 02:53:06 24° NW 02:53:06 24° NW visible
25 Mar ? 01:54:41 10° NNE 01:57:20 34° NNE 01:57:20 34° NNE visible
25 Mar ? 03:34:13 10° NNW 03:36:13 13° NW 03:36:13 13° NW visible
26 Mar ? 00:59:51 10° NE 01:01:34 19° NE 01:01:34 19° NE visible
26 Mar ? 02:37:24 10° N 02:40:26 30° NNW 02:40:26 30° NNW visible
27 Mar ? 01:41:51 10° NNE 01:44:40 35° NNE 01:44:40 35° NNE visible
27 Mar ? 03:20:47 10° NNW 03:23:33 17° NW 03:23:33 17° NW visible
28 Mar ? 00:47:19 10° NE 00:48:54 17° ENE 00:48:54 17° ENE visible
28 Mar ? 02:24:24 10° N 02:27:46 38° NNW 02:27:46 38° NNW visible
29 Mar ? 01:29:04 10° NNE 01:31:59 34° NE 01:31:59 34° NE visible
29 Mar ? 03:07:32 10° NNW 03:10:51 21° WNW 03:10:51 21° WNW visible
30 Mar ? 00:34:57 10° NE 00:36:12 14° ENE 00:36:12 14° ENE visible
30 Mar ? 02:11:28 10° N 02:15:03 47° NNW 02:15:03 47° NNW visible
31 Mar ? 01:16:20 10° NNE 01:19:16 31° NE 01:19:16 31° NE visible
31 Mar ? 02:54:22 10° N 02:58:09 27° WNW 02:58:09 27° WNW visible
01 Apr ? 00:22:52 10° ENE 00:23:28 11° ENE 00:23:28 11° ENE visible
01 Apr ? 01:58:34 10° NNE 02:02:21 56° N 02:02:21 56° N visible
01 Apr ? 03:38:17 10° NNW 03:40:16 13° NW 03:41:13 12° WNW visible
